EN

Hourly Weather Abdrashitovo

Today, 13 June, Sunday

Time Temperature Precipitation Wind Pressure Humidity
00:00 +14°C° 0 mm 3 mps 745 mmHg 60%
01:00 +16°C° 0 mm 3 mps 745 mmHg 56%
02:00 +14°C° 0 mm 3 mps 745 mmHg 55%
03:00 +14°C° 0 mm 3 mps 745 mmHg 54%
04:00 +14°C° 0 mm 3 mps 745 mmHg 53%
05:00 +16°C° 0 mm 3 mps 745 mmHg 55%
06:00 +17°C° 0 mm 3 mps 745 mmHg 56%
07:00 +18°C° 0 mm 4 mps 745 mmHg 57%
08:00 +19°C° 0 mm 3 mps 745 mmHg 56%
09:00 +20°C° 0 mm 3 mps 746 mmHg 54%
10:00 +21°C° 0 mm 3 mps 746 mmHg 53%
11:00 +22°C° 0 mm 3 mps 746 mmHg 50%
12:00 +24°C° 0 mm 3 mps 746 mmHg 48%
13:00 +25°C° 0 mm 2 mps 746 mmHg 45%
14:00 +25°C° 0 mm 3 mps 745 mmHg 45%
15:00 +26°C° 0 mm 4 mps 745 mmHg 44%
16:00 +26°C° 0 mm 5 mps 745 mmHg 44%
17:00 +25°C° 0 mm 4 mps 745 mmHg 49%
18:00 +22°C° 0 mm 4 mps 745 mmHg 55%
19:00 +21°C° 0 mm 3 mps 745 mmHg 60%
20:00 +20°C° 0 mm 3 mps 745 mmHg 59%
21:00 +19°C° 0 mm 2 mps 745 mmHg 58%
22:00 +20°C° 0 mm 1 mps 745 mmHg 57%
23:00 +19°C° 0 mm 1 mps 745 mmHg 58%

Tomorrow, 14 June, Monday

Time Temperature Precipitation Wind Pressure Humidity
00:00 +18°C° 0 mm 1 mps 745 mmHg 58%
01:00 +16°C° 0 mm 1 mps 745 mmHg 59%
02:00 +15°C° 0 mm 1 mps 745 mmHg 59%
03:00 +15°C° 0 mm 1 mps 745 mmHg 59%
04:00 +15°C° 0 mm 1 mps 745 mmHg 60%
05:00 +18°C° 0 mm 1 mps 745 mmHg 58%
06:00 +20°C° 0 mm 1 mps 745 mmHg 57%
07:00 +20°C° 0 mm 2 mps 746 mmHg 56%
08:00 +23°C° 0 mm 2 mps 746 mmHg 52%
09:00 +25°C° 0 mm 3 mps 746 mmHg 48%
10:00 +27°C° 0 mm 4 mps 746 mmHg 44%
11:00 +28°C° 0 mm 4 mps 746 mmHg 42%
12:00 +29°C° 0 mm 4 mps 746 mmHg 39%
13:00 +30°C° 0 mm 4 mps 746 mmHg 36%
14:00 +30°C° 0 mm 4 mps 745 mmHg 38%
15:00 +30°C° 0 mm 4 mps 745 mmHg 40%
16:00 +30°C° 0 mm 3 mps 745 mmHg 42%
17:00 +28°C° 0 mm 3 mps 745 mmHg 49%
18:00 +27°C° 0 mm 2 mps 745 mmHg 56%
19:00 +25°C° 0 mm 2 mps 745 mmHg 64%
20:00 +24°C° 0 mm 2 mps 745 mmHg 65%
21:00 +23°C° 0 mm 2 mps 745 mmHg 67%
22:00 +21°C° 0 mm 1 mps 745 mmHg 69%
23:00 +21°C° 0 mm 1 mps 745 mmHg 70%

Day after tomorrow, 15 June, Tuesday

Time Temperature Precipitation Wind Pressure Humidity
00:00 +19°C° 0 mm 2 mps 745 mmHg 71%
01:00 +18°C° 0 mm 2 mps 745 mmHg 72%
02:00 +18°C° 0 mm 2 mps 744 mmHg 69%
03:00 +18°C° 0 mm 2 mps 744 mmHg 66%
04:00 +19°C° 0 mm 2 mps 744 mmHg 63%
05:00 +20°C° 0 mm 2 mps 744 mmHg 62%
06:00 +21°C° 0 mm 2 mps 744 mmHg 61%
07:00 +23°C° 0 mm 2 mps 744 mmHg 60%
08:00 +24°C° 0 mm 3 mps 744 mmHg 55%
09:00 +26°C° 0 mm 3 mps 744 mmHg 51%
10:00 +28°C° 0 mm 4 mps 744 mmHg 46%
11:00 +28°C° 0 mm 4 mps 744 mmHg 44%
12:00 +29°C° 0 mm 5 mps 743 mmHg 43%
13:00 +30°C° 0 mm 5 mps 743 mmHg 41%
14:00 +29°C° 0 mm 5 mps 743 mmHg 44%
15:00 +29°C° 0 mm 5 mps 743 mmHg 48%
16:00 +28°C° 0 mm 5 mps 743 mmHg 51%
17:00 +27°C° 0 mm 4 mps 743 mmHg 58%
18:00 +26°C° 0 mm 3 mps 742 mmHg 65%
19:00 +25°C° 0 mm 2 mps 742 mmHg 71%
20:00 +24°C° 0.1 mm 1 mps 742 mmHg 74%
21:00 +22°C° 0.1 mm 1 mps 742 mmHg 77%
22:00 +19°C° 0.1 mm 0 mps 742 mmHg 79%
23:00 +21°C° 0.1 mm 1 mps 742 mmHg 79%

16 June, Wednesday

Time Temperature Precipitation Wind Pressure Humidity
00:00 +21°C° 0.1 mm 1 mps 742 mmHg 80%
01:00 +21°C° 0.1 mm 1 mps 742 mmHg 80%
02:00 +20°C° 0 mm 1 mps 742 mmHg 80%
03:00 +20°C° 0 mm 1 mps 742 mmHg 81%
04:00 +17°C° 0 mm 0 mps 742 mmHg 82%
05:00 +21°C° 0 mm 1 mps 742 mmHg 79%
06:00 +22°C° 0 mm 1 mps 742 mmHg 76%
07:00 +23°C° 0 mm 1 mps 742 mmHg 73%
08:00 +25°C° 0 mm 1 mps 742 mmHg 66%
09:00 +26°C° 0 mm 2 mps 741 mmHg 60%
10:00 +28°C° 0 mm 2 mps 741 mmHg 54%
11:00 +29°C° 0 mm 2 mps 741 mmHg 49%
12:00 +30°C° 0 mm 3 mps 741 mmHg 44%
13:00 +31°C° 0 mm 3 mps 740 mmHg 38%
14:00 +31°C° 0 mm 3 mps 740 mmHg 40%
15:00 +31°C° 0 mm 3 mps 740 mmHg 42%
16:00 +31°C° 0 mm 3 mps 740 mmHg 43%
17:00 +30°C° 0 mm 2 mps 739 mmHg 49%
18:00 +28°C° 0 mm 2 mps 739 mmHg 55%
19:00 +27°C° 0 mm 1 mps 739 mmHg 61%
20:00 +26°C° 0 mm 2 mps 739 mmHg 62%
21:00 +24°C° 0 mm 2 mps 738 mmHg 62%
22:00 +21°C° 0 mm 2 mps 738 mmHg 62%
23:00 +21°C° 0.5 mm 2 mps 738 mmHg 68%

17 June, Thursday

Time Temperature Precipitation Wind Pressure Humidity
00:00 +20°C° 0.5 mm 2 mps 737 mmHg 74%
01:00 +19°C° 0.5 mm 2 mps 737 mmHg 79%
02:00 +18°C° 0.5 mm 3 mps 736 mmHg 82%
03:00 +18°C° 0.5 mm 3 mps 736 mmHg 86%
04:00 +17°C° 0.5 mm 3 mps 735 mmHg 89%
05:00 +18°C° 0.5 mm 4 mps 735 mmHg 87%
06:00 +19°C° 0.5 mm 4 mps 734 mmHg 85%
07:00 +20°C° 0.5 mm 5 mps 734 mmHg 83%
08:00 +21°C° 0.2 mm 5 mps 734 mmHg 80%
09:00 +23°C° 0.2 mm 6 mps 734 mmHg 77%
10:00 +24°C° 0.2 mm 7 mps 733 mmHg 75%
11:00 +24°C° 0.5 mm 7 mps 733 mmHg 73%
12:00 +26°C° 0.5 mm 7 mps 733 mmHg 72%
13:00 +26°C° 0.5 mm 7 mps 733 mmHg 71%
14:00 +23°C° 0.8 mm 7 mps 733 mmHg 77%
15:00 +21°C° 0.8 mm 7 mps 734 mmHg 83%
16:00 +18°C° 0.8 mm 7 mps 734 mmHg 89%
17:00 +16°C° 0.1 mm 7 mps 735 mmHg 90%
18:00 +14°C° 0.1 mm 7 mps 736 mmHg 90%
19:00 +11°C° 0.1 mm 8 mps 736 mmHg 91%
20:00 +11°C° 0 mm 8 mps 737 mmHg 85%
21:00 +11°C° 0 mm 8 mps 738 mmHg 79%
22:00 +10°C° 0 mm 8 mps 738 mmHg 74%
23:00 +10°C° 0 mm 8 mps 738 mmHg 71%

18 June, Friday

Time Temperature Precipitation Wind Pressure Humidity
00:00 +9°C° 0 mm 8 mps 739 mmHg 69%
01:00 +9°C° 0 mm 8 mps 739 mmHg 67%
02:00 +7°C° 0 mm 8 mps 739 mmHg 65%
03:00 +8°C° 0 mm 7 mps 740 mmHg 63%
04:00 +8°C° 0 mm 7 mps 740 mmHg 61%
05:00 +8°C° 0 mm 7 mps 740 mmHg 60%
06:00 +9°C° 0 mm 8 mps 741 mmHg 59%
07:00 +10°C° 0 mm 8 mps 741 mmHg 59%
08:00 +11°C° 0 mm 8 mps 741 mmHg 53%
09:00 +12°C° 0 mm 9 mps 741 mmHg 48%
10:00 +12°C° 0 mm 9 mps 742 mmHg 42%
11:00 +13°C° 0 mm 9 mps 742 mmHg 42%
12:00 +14°C° 0 mm 10 mps 742 mmHg 42%
13:00 +16°C° 0 mm 10 mps 742 mmHg 41%
14:00 +17°C° 0 mm 9 mps 742 mmHg 43%
15:00 +17°C° 0 mm 8 mps 742 mmHg 44%
16:00 +17°C° 0 mm 8 mps 742 mmHg 46%
17:00 +17°C° 0 mm 7 mps 742 mmHg 49%
18:00 +16°C° 0 mm 6 mps 742 mmHg 52%
19:00 +16°C° 0 mm 5 mps 742 mmHg 55%
20:00 +14°C° 0 mm 5 mps 743 mmHg 58%
21:00 +13°C° 0 mm 4 mps 743 mmHg 61%
22:00 +11°C° 0 mm 3 mps 743 mmHg 65%
23:00 +11°C° 0 mm 3 mps 743 mmHg 67%
Show more